2023/10/13 00:00:00,55.0, 7.7
2023/10/13 00:10:00,54.9, 7.6
2023/10/13 00:20:00,55.0, 7.5
2023/10/13 00:30:00,55.0, 7.6
2023/10/13 00:40:00,54.9, 7.3
2023/10/13 00:50:00,54.9, 7.4
2023/10/13 01:00:00,55.1, 7.4
2023/10/13 01:10:00,55.0, 7.1
2023/10/13 01:20:00,54.9, 7.1
2023/10/13 01:30:00,55.0, 7.1
2023/10/13 01:40:00,55.0, 7.0
2023/10/13 01:50:00,54.8, 6.9
2023/10/13 02:00:00,54.9, 6.8
2023/10/13 02:10:00,55.1, 6.9
2023/10/13 02:20:00,54.9, 6.9
2023/10/13 02:30:00,54.9, 6.5
2023/10/13 02:40:00,54.9, 6.8
2023/10/13 02:50:00,55.0, 6.6
2023/10/13 03:00:00,54.8, 6.4
2023/10/13 03:10:00,54.8, 6.3
2023/10/13 03:20:00,54.8, 6.3
2023/10/13 03:30:00,54.8, 6.1
2023/10/13 03:40:00,54.7, 6.1
2023/10/13 03:50:00,54.7, 6.0
2023/10/13 04:00:00,54.8, 6.0
2023/10/13 04:10:00,54.8, 6.1
2023/10/13 04:20:00,54.8, 6.1
2023/10/13 04:30:00,54.8, 6.0
2023/10/13 04:40:00,54.4, 6.1
2023/10/13 04:50:00,54.7, 6.1
2023/10/13 05:00:00,54.7, 6.0
2023/10/13 05:10:00,54.7, 5.9
2023/10/13 05:20:00,54.7, 6.0
2023/10/13 05:30:00,54.8, 6.0
2023/10/13 05:40:00,54.7, 6.0
2023/10/13 05:50:00,54.7, 6.1
2023/10/13 06:00:00,54.7, 5.9
2023/10/13 06:10:00,54.7, 6.0
2023/10/13 06:20:00,54.7, 6.0
2023/10/13 06:30:00,54.7, 6.0
2023/10/13 06:40:00,54.7, 6.2
2023/10/13 06:50:00,54.7, 6.4
2023/10/13 07:00:00,54.7, 6.7
2023/10/13 07:10:00,54.7, 7.1
2023/10/13 07:20:00,54.7, 7.2
2023/10/13 07:30:00,54.7, 7.8
2023/10/13 07:40:00,54.7, 8.4
2023/10/13 07:50:00,54.6, 8.4
2023/10/13 08:00:00,54.7, 8.7
2023/10/13 08:10:00,54.7, 9.2
2023/10/13 08:20:00,54.7,10.1
2023/10/13 08:30:00,54.7,10.6
2023/10/13 08:40:00,54.6,11.0
2023/10/13 08:50:00,54.6,11.6
2023/10/13 09:00:00,54.6,12.0
2023/10/13 09:10:00,54.8,12.1
2023/10/13 09:20:00,54.6,12.9
2023/10/13 09:30:00,54.3,13.2
2023/10/13 09:40:00,54.5,13.2
2023/10/13 09:50:00,54.6,13.9
2023/10/13 10:00:00,54.6,13.8
2023/10/13 10:10:00,54.6,14.5
2023/10/13 10:20:00,54.7,15.3
2023/10/13 10:30:00,54.6,15.9
2023/10/13 10:40:00,54.6,18.0
2023/10/13 10:50:00,54.8,22.0
2023/10/13 11:00:00,54.6,21.3
2023/10/13 11:10:00,54.3,19.0
2023/10/13 11:20:00,54.5,18.7
2023/10/13 11:30:00,54.2,19.1
2023/10/13 11:40:00,53.9,18.7
2023/10/13 11:50:00,54.0,19.3
2023/10/13 12:00:00,53.7,19.4
2023/10/13 12:10:00,53.7,18.9
2023/10/13 12:20:00,53.6,18.7
2023/10/13 12:30:00,53.7,19.1
2023/10/13 12:40:00,53.7,18.9
2023/10/13 12:50:00,53.8,19.4
2023/10/13 13:00:00,53.8,19.1
2023/10/13 13:10:00,53.9,18.6
2023/10/13 13:20:00,54.1,19.2
2023/10/13 13:30:00,54.1,19.5
2023/10/13 13:40:00,53.8,18.7
2023/10/13 13:50:00,53.9,19.0
2023/10/13 14:00:00,53.9,19.6
2023/10/13 14:10:00,53.8,18.8
2023/10/13 14:20:00,53.8,18.7
2023/10/13 14:30:00,53.7,18.4
2023/10/13 14:40:00,53.9,18.1
2023/10/13 14:50:00,54.2,18.0
2023/10/13 15:00:00,54.3,17.0
2023/10/13 15:10:00,54.3,17.0
2023/10/13 15:20:00,54.4,16.6
2023/10/13 15:30:00,54.5,16.8
2023/10/13 15:40:00,54.6,16.8
2023/10/13 15:50:00,54.6,16.9
2023/10/13 16:00:00,54.5,16.4
2023/10/13 16:10:00,54.6,15.6
2023/10/13 16:20:00,54.7,15.5
2023/10/13 16:30:00,54.7,15.3
2023/10/13 16:40:00,54.7,15.1
2023/10/13 16:50:00,54.8,14.7
2023/10/13 17:00:00,54.8,14.6
2023/10/13 17:10:00,54.9,14.2
2023/10/13 17:20:00,54.9,13.4
2023/10/13 17:30:00,55.0,12.9
2023/10/13 17:40:00,55.0,12.6
2023/10/13 17:50:00,55.0,12.3
2023/10/13 18:00:00,55.1,11.7
2023/10/13 18:10:00,55.0,11.5
2023/10/13 18:20:00,55.1,11.0
2023/10/13 18:30:00,55.1,11.1
2023/10/13 18:40:00,55.2,10.9
2023/10/13 18:50:00,55.1,10.3
2023/10/13 19:00:00,55.2,10.6
2023/10/13 19:10:00,55.1,10.0
2023/10/13 19:20:00,55.1,10.0
2023/10/13 19:30:00,55.1, 9.9
2023/10/13 19:40:00,55.1, 9.9
2023/10/13 19:50:00,55.1, 9.9
2023/10/13 20:00:00,55.2, 9.7
2023/10/13 20:10:00,55.1, 9.7
2023/10/13 20:20:00,55.2, 9.6
2023/10/13 20:30:00,55.1, 9.6
2023/10/13 20:40:00,55.2, 9.4
2023/10/13 20:50:00,55.2, 9.4
2023/10/13 21:00:00,55.1, 9.1
2023/10/13 21:10:00,55.1, 9.2
2023/10/13 21:20:00,55.1, 8.9
2023/10/13 21:30:00,55.2, 9.1
2023/10/13 21:40:00,55.2, 9.1
2023/10/13 21:50:00,55.2, 9.0
2023/10/13 22:00:00,55.2, 8.9
2023/10/13 22:10:00,55.2, 8.6
2023/10/13 22:20:00,55.1, 8.9
2023/10/13 22:30:00,55.1, 9.0
2023/10/13 22:40:00,55.2, 9.2
2023/10/13 22:50:00,55.2, 9.6
2023/10/13 23:00:00,55.1, 9.6
2023/10/13 23:10:00,55.2, 9.6
2023/10/13 23:20:00,55.2, 9.7
2023/10/13 23:30:00,55.1, 9.8
2023/10/13 23:40:00,55.2, 9.7
2023/10/13 23:50:00,55.2, 9.7
